User: anonymous   Login
Location: Napier
(39.4830°S, 176.9170°E)
Time: 22:06:16
(UTC+13:00)
Language:

SeaSat 1 - Orbit

View from above orbital plane
View from above orbital plane
View from above satellite
View from above satellite

Ground track
Ground track

The orbit data is extracted from the following two-line orbital elements,

1 10967U 78064A   19078.43014761 -.00000050 +00000-0 +25725-4 0  9990
2 10967 108.0091 197.7589 0002098 231.8573 128.2382 14.43759172139000
Epoch (UTC): 19 March 2019 10:19:24
Eccentricity: 0.0002098
inclination: 108.0091°
perigee height: 744 km
apogee height: 747 km
right ascension of ascending node: 197.7589°
argument of perigee: 231.8573°
revolutions per day: 14.43759172
mean anomaly at epoch: 128.2382°
orbit number at epoch: 13900

The dashed part of the orbit path shows where the satellite is in the earth's shadow,  

DLR